Location: Gipe Farm
(40.9466°N, 95.5370°W)
Time: 21:09:25
(UTC-06:00)

Cosmos 1842 - Visible Passes

Search period start: 02 March 2015 00:00
Search period end: 12 March 2015 01:00
Orbit: 534 x 548 km, 82.5° (Epoch: 02 March)

Date Brightness Start Highest point End Pass type
(mag) Time Alt. Az. Time Alt. Az. Time Alt. Az.
02 Mar 5.9 20:55:23 10° NNW 20:56:17 16° NNW 20:56:17 16° NNW visible
03 Mar 5.4 19:13:58 10° NE 19:14:24 11° NE 19:14:24 11° NE visible
03 Mar 5.4 20:48:17 10° NNW 20:49:58 23° NNW 20:49:58 23° NNW visible
04 Mar 5.2 19:06:49 10° NE 19:08:11 12° ENE 19:08:11 12° ENE visible
04 Mar 4.8 20:41:12 10° NNW 20:43:47 34° NW 20:43:47 34° NW visible
05 Mar 5.1 18:59:38 10° NE 19:01:18 12° ENE 19:02:06 12° E visible
05 Mar 4.3 20:34:06 10° NNW 20:37:42 45° W 20:37:42 45° W visible
06 Mar 5.2 18:52:28 10° NE 18:54:12 13° ENE 18:56:06 10° E visible
06 Mar 4.3 20:26:59 10° NNW 20:30:48 45° W 20:31:48 36° SW visible
07 Mar 5.1 18:45:17 10° NE 18:47:05 13° ENE 18:49:02 10° E visible
07 Mar 4.4 20:19:52 10° NNW 20:23:40 44° W 20:26:09 19° SSW visible
08 Mar 4.4 21:12:44 10° NNW 21:16:32 43° W 21:20:16 10° SSW visible
09 Mar 4.5 21:05:36 10° NNW 21:09:23 42° W 21:13:07 10° SSW visible
10 Mar 4.6 20:58:27 10° NNW 21:02:14 41° W 21:05:56 10° SSW visible
11 Mar 4.7 20:51:18 10° NNW 20:55:04 40° W 20:58:45 10° SSW visible
